Location: Leipzig
(51.3392°N, 12.3528°E)
Time: 00:19:26
(UTC+01:00)

ISS - Pass Details

Date: 11 November 2017
Orbit: 402 x 407 km, 51.6° (Epoch: 22 November)

Event Time Altitude Azimuth Distance (km) Brightness Sun altitude
Exits shadow 06:42:31 - 278° (W) 1,615 -1.4 -6.4°
Reaches altitude 10° 06:42:55 10° 276° (W) 1,458 -1.6 -6.3°
Maximum altitude 06:45:58 37° 207° (SSW) 648 -2.8 -5.9°
Drops below altitude 10° 06:49:00 10° 139° (SE) 1,452 0.2 -5.4°
Sets 06:51:09 0° 130° (SE) 2,309 1.7 -5.1°
